OpenBCM V1.08-5-g2f4a (Linux)

Packet Radio Mailbox

IZ3LSV

[San Dona' di P. JN]

 Login: GUEST





  
LU1HVK > KEP      10.01.20 17:41l 242 Lines 12024 Bytes #999 (0) @ WW
BID : 38566_LU1HVK
Read: GUEST
Subj: TLE 16 10
Path: IZ3LSV<IW0QNL<JH4XSY<N3HYM<XE1FH<LU3DVN<LU1HVK
Sent: 200110/1533Z 38566@LU1HVK.2594.CBA.ARG.SA LinBPQ6.0.19

                         _    _   _ _ _   ___     ___  __
                        | |  | | | / | | | \ \   / / |/ /
                        | |  | | | | | |_| |\ \ / /| ' /
                        | |__| |_| | |  _  | \ V / | . \
                        |_____\___/|_|_| |_|  \_/  |_|\_\

     BBS/NODO - CORDOBA (LEONES-FF87UH) - LU1HVK-4 NODO - LU1HVK-3 APRS

+----------------------------------------------------------------------------+
OSCAR 7
1  7530U 74089B   19288.85131111 -.00000047 +00000-0 -97132-5 0  9992
2  7530 101.7605 255.3541 0012388 115.9222 312.8041 12.53640321055215
OSCAR 11 (UoSAT 2)
1 14781U 84021B   19288.84830019 +.00000065 +00000-0 +14064-4 0  9997
2 14781 097.6048 307.8910 0007071 292.2372 067.8092 14.83112323895425
OSCAR 19 (LUSAT)
1 20442U 90005G   19288.79388681 +.00000006 +00000-0 +18561-4 0  9995
2 20442 098.6587 230.6451 0012148 153.4913 206.6894 14.32935135553374
EYESAT A
1 22825U 93061C   19288.93271470 -.00000005 +00000-0 +16059-4 0  9990
2 22825 098.9132 280.3455 0008741 018.8047 341.3456 14.30068623358722
ITAMSAT
1 22826U 93061D   19288.90658509 -.00000006 +00000-0 +15623-4 0  9997
2 22826 098.9072 280.2953 0009061 007.4092 352.7221 14.30402733358942
RADIO ROSTO
1 23439U 94085A   19288.89340941 -.00000055 +00000-0 -36285-3 0  9992
2 23439 064.8147 283.3591 0145230 089.9773 271.7792 11.27568310021330
JAS 2
1 24278U 96046B   19288.89525158 -.00000008 +00000-0 +30880-4 0  9991
2 24278 098.5560 066.2298 0349327 291.0479 065.3637 13.53093830143677
TECHSAT 1B
1 25397U 98043D   19288.88602181 -.00000008 +00000-0 +15587-4 0  9991
2 25397 098.6978 227.6294 0002277 067.5226 292.6194 14.23672234104612
ISS (ZARYA)
1 25544U 98067A   19289.02977639 -.00000090  00000-0  64413-5 0  9995
2 25544  51.6425 122.0475 0007138 152.2057 343.3425 15.50196905194006
PCSAT
1 26931U 01043C   19288.84394590 -.00000031 +00000-0 +19745-4 0  9994
2 26931 067.0520 056.2057 0007459 268.2434 091.7813 14.30555234941940
SAUDISAT 1C
1 27607U 02058C   19288.82934795 +.00000000 +00000-0 +20839-4 0  9998
2 27607 064.5563 045.3440 0074992 233.3437 126.0757 14.75579132904486
CUTE-1
1 27844U 03031E   19288.90275833 +.00000040 +00000-0 +37832-4 0  9998
2 27844 098.6853 295.3394 0010672 050.4290 309.7828 14.22199441845198
CUBESAT XI 4
1 27848U 03031J   19288.92891791 +.00000027 +00000-0 +32177-4 0  9993
2 27848 098.6927 295.8893 0010703 061.3258 298.8994 14.21791902845059
MOZHAYETS 4
1 27939U 03042A   19288.88152347 +.00000041 +00000-0 +15901-4 0  9990
2 27939 098.0579 062.4932 0013861 054.4129 305.8369 14.66809314858018
CUBESAT XI 5
1 28895U 05043F   19288.66291564 +.00000122 +00000-0 +32380-4 0  9996
2 28895 097.9769 067.4362 0016221 340.5240 019.5341 14.63699478744655
CUTE-1.7+APD II
1 32785U 08021C   19288.81866812 +.00000156 +00000-0 +22447-4 0  9999
2 32785 097.5562 282.9543 0011941 223.2536 136.7745 14.88357000621337
DELFI C3
1 32789U 08021G   19288.86616879 +.00001193 +00000-0 +83173-4 0  9999
2 32789 097.4523 334.8700 0013712 080.1967 280.0808 15.07175398624814
SEEDS
1 32791U 08021J   19288.70316846 +.00000247 +00000-0 +30399-4 0  9997
2 32791 097.5316 288.9243 0012839 195.2859 164.7973 14.90886579621769
YUBELEINY
1 32953U 08025A   19288.84115035 +.00000020 +00000-0 +75656-4 0  9997
2 32953 082.4998 070.6557 0018960 227.9762 131.9708 12.43091802517117
PRISM (HITOMI)
1 33493U 09002B   19288.73044218 +.00000496 +00000-0 +48844-4 0  9991
2 33493 098.1216 214.2016 0015709 145.3396 214.8852 14.96757320582942
KKS-1 (KISEKI)
1 33499U 09002H   19288.89587635 +.00000081 +00000-0 +19957-4 0  9992
2 33499 098.3409 131.3642 0009022 179.3880 180.7341 14.75469432576379
SWISSCUBE
1 35932U 09051B   19288.66668101 +.00000118 +00000-0 +37753-4 0  9998
2 35932 098.5989 098.2086 0008089 153.6858 206.4751 14.56318131534051
BEESAT
1 35933U 09051C   19288.73123460  .00000085  00000-0  30128-4 0  9993
2 35933  98.6006 100.0826 0006083 163.5876 196.5519 14.56402974534217
ITUPSAT 1
1 35935U 09051E   19288.72022902 +.00000069 +00000-0 +27126-4 0  9999
2 35935 098.6116 100.2999 0008385 164.1898 195.9561 14.55558343533920
XIWANG-1 (HOPE-1)
1 36122U 09072B   19288.68300775 -.00000023  00000-0  50719-4 0  9998
2 36122 100.0791 285.4917 0008171  69.3487 290.8473 13.16351681472533
TISAT 1
1 36799U 10035E   19288.92598897 +.00000415 +00000-0 +47861-4 0  9998
2 36799 098.1711 085.1509 0013314 058.5498 301.7019 14.91176613502335
JUGNU
1 37839U 11058B   19287.49844160 +.00000311 +00000-0 +23700-4 0  9999
2 37839 019.9627 340.3797 0018753 185.1979 307.2500 14.12661181413829
SRMSAT
1 37841U 11058D   19287.49361869  .00000298  00000-0  18579-4 0  9994
2 37841  19.9732  39.6175 0012002  50.8590  26.0864 14.10641004413341
M-CUBED/EXP-1 PRIME
1 37855U 11061F   19288.82595914 +.00001451 +00000-0 +79706-4 0  9992
2 37855 101.7167 245.5879 0172994 083.5525 278.5352 15.05644127434236
HORYU 2
1 38340U 12025D   19288.90946136 +.00000148 +00000-0 +29569-4 0  9992
2 38340 098.3174 331.0060 0012790 103.6606 256.6027 14.75759620388335
STRAND 1
1 39090U 13009E   19288.80153723  .00000015  00000-0  20430-4 0  9990
2 39090  98.4765 132.7037 0008193 299.2426  60.7940 14.35100452347476
SOMP
1 39134U 13015E   19288.69005430  .00001019  00000-0  55258-4 0  9995
2 39134  64.8644 354.8435 0037157 283.5075  76.1914 15.20395194358686
BEESAT 3
1 39135U 13015F   19288.62690162 +.00000726 +00000-0 +45356-4 0  9993
2 39135 064.8697 015.0342 0036686 291.6245 068.0975 15.17653313357900
BEESAT 2
1 39136U 13015G   19288.70925240  .00000649  00000-0  42389-4 0  9998
2 39136  64.8705  18.9345 0028418 296.8615  62.9606 15.17070835358220
CUBEBUG 1
1 39153U 13018D   19288.84264136  .00000195  00000-0  32339-4 0  9995
2 39153  97.9813  26.3163 0017284 168.0863 192.0762 14.80607391349445
ZACUBE
1 39417U 13066B   19288.67338280  .00000196  00000-0  31001-4 0  9990
2 39417  97.5626 295.4887 0059053   5.3917 354.7919 14.81160973318652
TRITON 1
1 39427U 13066M   19288.88496150 +.00000165 +00000-0 +34099-4 0  9991
2 39427 097.6913 258.9892 0114553 143.2696 217.6431 14.67889804315632
GOMX 1
1 39430U 13066Q   19288.86301920  .00000097  00000-0  26972-4 0  9998
2 39430  97.7591 237.6413 0149926 238.3930 120.2574 14.59295646313980
HUMSAT D
1 39433U 13066T   19288.63736378 +.00000129 +00000-0 +17882-4 0  9991
2 39433 097.5412 331.2071 0029201 263.2958 096.4938 14.92270654319639
CUBEBUG 2
1 39440U 13066AA  19288.93992587 +.00000202 +00000-0 +34913-4 0  9994
2 39440 097.6100 280.3816 0081507 058.1523 302.7588 14.75898029316363
FUNCUBE 1
1 39444U 13066AE  19288.67544671 +.00000247 +00000-0 +36669-4 0  9995
2 39444 097.5597 297.5479 0057995 358.7605 001.3456 14.81989356316968
UWE-3
1 39446U 13066AG  19288.94280157 +.00000208 +00000-0 +34194-4 0  9991
2 39446 097.5856 287.5231 0070816 031.9941 328.5541 14.78433465316299
SPROUT
1 39770U 14029E   19288.83938507  .00000458  00000-0  56607-4 0  9998
2 39770  97.8891  31.3960 0010114  58.1627 302.0532 14.87456422292548
UNISAT 6
1 40012U 14033C   19288.81233893  .00000160  00000-0  31107-4 0  9996
2 40012  97.7395 150.1902 0059717  73.8018 286.9751 14.74017722286237
DUCHIFAT 1
1 40021U 14033M   19288.75905084  .00000383  00000-0  44853-4 0  9996
2 40021  97.9249 213.7501 0013590  23.1761 337.0067 14.90704545289280
QB50P1
1 40025U 14033R   19288.84919136  .00000278  00000-0  35515-4 0  9991
2 40025  97.9041 208.3274 0013289  32.9825 327.2219 14.88998389289058
CHUBUSAT 1
1 40300U 14070C   19288.78958502  .00000623  00000-0  30013-4 0  9993
2 40300  97.3179 359.9062 0020423   0.8669 141.8132 15.22204472274135
NUDT-PHONESAT
1 40900U 15049B   19288.82968264  .00001791  00000-0  78717-4 0  9997
2 40900  97.4371 297.0202 0014171 122.8793 319.8160 15.23138063225799
ZDPS 2A
1 40901U 15049C   19288.93326759 +.00000838 +00000-0 +44633-4 0  9998
2 40901 097.4623 293.0543 0014320 142.3489 276.4165 15.17873814225324
ZDPS 2B
1 40902U 15049D   19288.91068204 +.00000861 +00000-0 +45910-4 0  9990
2 40902 097.4580 290.4325 0014455 139.7681 307.8306 15.17737972225295
XW-2A
1 40903U 15049E   19288.85670535  .00001811  00000-0  44099-4 0  9993
2 40903  97.3257 332.2325 0015235  74.7320  10.7389 15.42190651228611
KAITUO 1A
1 40904U 15049F   19288.91839388 +.00000698 +00000-0 +40298-4 0  9993
2 40904 097.4711 288.9157 0015399 149.1574 298.7831 15.15463808225059
OBJECT G
1 40905U 15049G   19288.94659668 +.00000127 +00000-0 +10471-4 0  9995
2 40905 097.4762 286.3714 0016225 144.6586 276.0857 15.14360748224929
XW-2C
1 40906U 15049H   19288.95467514 +.00000277 +00000-0 +17948-4 0  9996
2 40906 097.4712 289.0884 0015487 140.3500 275.8037 15.15779406225060
XW-2D
1 40907U 15049J   19288.91831797  .00000705  00000-0  40095-4 0  9996
2 40907  97.4695 288.7335 0015085 137.5288 284.5379 15.15979723225074
LILACSAT 2
1 40908U 15049K   19288.90284909 -.00000015 +00000-0 +27787-5 0  9992
2 40908 097.4831 287.4114 0016537 145.4856 302.0665 15.13863906224841
XW-2F
1 40910U 15049M   19288.96252064 +.00000673 +00000-0 +36917-4 0  9991
2 40910 097.4661 290.9591 0015786 130.0900 284.7963 15.17464931225104
XW-2B
1 40911U 15049N   19288.82740483  .00000333  00000-0  20827-4 0  9990
2 40911  97.4715 289.3138 0014897 138.6631 299.1660 15.15905093224954
KAITUO 1B
1 40912U 15049P   19288.94416373 +.00001024 +00000-0 +50896-4 0  9999
2 40912 097.4513 294.7711 0016426 113.5490 306.2179 15.19799472225427
TIANWANG 1C (TW-1C)
1 40926U 15051B   19288.89008885 +.00011623 +00000-0 +15639-3 0  9997
2 40926 097.1230 334.9918 0005447 292.4766 155.0882 15.58006570228703
TIANWANG 1B (TW-1B)
1 40927U 15051C   19288.91315508  .00010985  00000-0  15769-3 0  9998
2 40927  97.1261 334.1404 0006239 310.2997 154.4159 15.56267642228544
